| time (UTC) | temp F | wind direction | speed MPH | gust MPH | rain 1hr in | rain 24hr in | rain mn in | humidity % | barometer mb |
| 20260508121731 | 59 | 232 | 0.0 | 0.0 | 0.00 | 0.00 | 0.00 | 99 | 1018.9 |
| 20260508121230 | 58 | 233 | 0.0 | 0.0 | 0.00 | 0.00 | 0.00 | 99 | 1018.8 |
| 20260508120726 | 58 | 233 | 0.0 | 0.0 | 0.00 | 0.00 | 0.00 | 99 | 1018.4 |
| 20260508120225 | 57 | 232 | 0.0 | 0.0 | 0.00 | 0.00 | 0.00 | 99 | 1018.5 |
| 20260508115722 | 57 | 227 | 0.0 | 0.0 | 0.00 | 0.00 | 0.00 | 99 | 1018.5 |
| 20260508115219 | 57 | 236 | 0.0 | 0.0 | 0.00 | 0.00 | 0.00 | 99 | 1018.2 |
| 20260508114716 | 56 | 237 | 0.0 | 0.0 | 0.00 | 0.00 | 0.00 | 99 | 1018.3 |
| 20260508114212 | 56 | 227 | 0.0 | 0.0 | 0.00 | 0.00 | 0.00 | 99 | 1018.0 |
| 20260508113709 | 55 | 231 | 0.0 | 0.0 | 0.00 | 0.00 | 0.00 | 99 | 1018.1 |
| 20260508113208 | 55 | 235 | 0.0 | 0.0 | 0.00 | 0.00 | 0.00 | 99 | 1017.9 |
| 20260508112703 | 55 | 236 | 0.0 | 0.0 | 0.00 | 0.00 | 0.00 | 99 | 1017.8 |
| 20260508112200 | 55 | 193 | 0.0 | 0.0 | 0.00 | 0.00 | 0.00 | 99 | 1017.4 |
| 20260508111657 | 54 | 193 | 0.0 | 0.0 | 0.00 | 0.00 | 0.00 | 99 | 1017.6 |
| 20260508111155 | 54 | 192 | 0.0 | 0.0 | 0.00 | 0.00 | 0.00 | 99 | 1017.5 |
| 20260508110652 | 54 | 192 | 0.0 | 0.0 | 0.00 | 0.00 | 0.00 | 99 | 1017.3 |
| 20260508110148 | 54 | 181 | 0.0 | 0.0 | 0.00 | 0.00 | 0.00 | 99 | 1017.4 |
| 20260508105643 | 54 | 195 | 0.0 | 0.0 | 0.00 | 0.00 | 0.00 | 99 | 1017.2 |
| 20260508105140 | 54 | 195 | 0.0 | 0.0 | 0.00 | 0.00 | 0.00 | 99 | 1017.0 |
| 20260508104638 | 54 | 195 | 0.0 | 0.0 | 0.00 | 0.00 | 0.00 | 99 | 1017.1 |
| 20260508104135 | 54 | 195 | 0.0 | 0.0 | 0.00 | 0.00 | 0.00 | 99 | 1017.0 |
| 20260508103632 | 54 | 196 | 0.0 | 0.0 | 0.00 | 0.00 | 0.00 | 99 | 1016.8 |
| 20260508103129 | 54 | 195 | 0.0 | 0.0 | 0.00 | 0.00 | 0.00 | 99 | 1016.7 |
| 20260508102626 | 54 | 195 | 0.0 | 0.0 | 0.00 | 0.00 | 0.00 | 99 | 1016.8 |
| 20260508102124 | 54 | 195 | 0.0 | 0.0 | 0.00 | 0.00 | 0.00 | 99 | 1016.7 |
| 20260508101621 | 54 | 195 | 0.0 | 0.0 | 0.00 | 0.00 | 0.00 | 99 | 1016.9 |
| 20260508101118 | 54 | 196 | 0.0 | 0.0 | 0.00 | 0.00 | 0.00 | 99 | 1016.7 |
| 20260508100616 | 55 | 196 | 0.0 | 0.0 | 0.00 | 0.00 | 0.00 | 99 | 1016.5 |
| 20260508100114 | 55 | 196 | 0.0 | 0.0 | 0.00 | 0.00 | 0.00 | 99 | 1016.4 |
| 20260508095610 | 54 | 196 | 0.0 | 0.0 | 0.00 | 0.00 | 0.00 | 99 | 1016.3 |
| 20260508095107 | 54 | 195 | 0.0 | 0.0 | 0.00 | 0.00 | 0.00 | 99 | 1016.3 |
| 20260508094604 | 54 | 195 | 0.0 | 0.0 | 0.00 | 0.00 | 0.00 | 99 | 1016.3 |
| 20260508094101 | 54 | 196 | 0.0 | 0.0 | 0.00 | 0.00 | 0.00 | 99 | 1016.2 |
| 20260508093558 | 55 | 195 | 0.0 | 0.0 | 0.00 | 0.00 | 0.00 | 99 | 1016.3 |
| 20260508093056 | 55 | 196 | 0.0 | 0.0 | 0.00 | 0.00 | 0.00 | 99 | 1016.0 |
| 20260508092553 | 55 | 196 | 0.0 | 0.0 | 0.00 | 0.00 | 0.00 | 99 | 1016.0 |
| 20260508092052 | 55 | 196 | 0.0 | 0.0 | 0.00 | 0.00 | 0.00 | 99 | 1015.8 |
| 20260508091549 | 55 | 195 | 0.0 | 0.0 | 0.00 | 0.00 | 0.00 | 99 | 1016.0 |
| 20260508091045 | 55 | 196 | 0.0 | 0.0 | 0.00 | 0.00 | 0.00 | 99 | 1016.0 |
| 20260508090543 | 55 | 195 | 0.0 | 0.0 | 0.00 | 0.00 | 0.00 | 99 | 1015.8 |
| 20260508090039 | 55 | 195 | 0.0 | 0.0 | 0.00 | 0.00 | 0.00 | 99 | 1015.4 |
| 20260508085536 | 55 | 195 | 0.0 | 0.0 | 0.00 | 0.00 | 0.00 | 99 | 1015.6 |
| 20260508085033 | 55 | 195 | 0.0 | 0.0 | 0.00 | 0.00 | 0.00 | 99 | 1015.5 |
| 20260508084530 | 55 | 196 | 0.0 | 0.0 | 0.00 | 0.00 | 0.00 | 98 | 1015.7 |
| 20260508084027 | 55 | 195 | 0.0 | 0.0 | 0.00 | 0.00 | 0.00 | 98 | 1015.5 |
| 20260508083525 | 55 | 195 | 0.0 | 0.0 | 0.00 | 0.00 | 0.00 | 98 | 1015.2 |
| 20260508083021 | 55 | 195 | 0.0 | 0.0 | 0.00 | 0.00 | 0.00 | 98 | 1015.3 |
| 20260508082517 | 56 | 195 | 0.0 | 0.0 | 0.00 | 0.00 | 0.00 | 97 | 1015.5 |
| 20260508082015 | 56 | 195 | 0.0 | 0.0 | 0.00 | 0.00 | 0.00 | 97 | 1015.8 |
| 20260508081512 | 56 | 195 | 0.0 | 0.0 | 0.00 | 0.00 | 0.00 | 97 | 1015.4 |
| 20260508081008 | 56 | 195 | 0.0 | 0.0 | 0.00 | 0.00 | 0.00 | 96 | 1015.5 |
| 20260508080506 | 56 | 195 | 0.0 | 0.0 | 0.00 | 0.00 | 0.00 | 96 | 1015.4 |
| 20260508080003 | 56 | 195 | 0.0 | 0.0 | 0.00 | 0.00 | 0.00 | 97 | 1015.7 |
| 20260508075459 | 57 | 195 | 0.0 | 0.0 | 0.00 | 0.00 | 0.00 | 97 | 1015.8 |
| 20260508074957 | 57 | 195 | 0.0 | 0.0 | 0.00 | 0.00 | 0.00 | 97 | 1015.3 |
| 20260508074455 | 57 | 195 | 0.0 | 0.0 | 0.00 | 0.00 | 0.00 | 96 | 1015.6 |
| 20260508073951 | 57 | 196 | 0.0 | 0.0 | 0.00 | 0.00 | 0.00 | 96 | 1015.4 |
| 20260508073449 | 57 | 196 | 0.0 | 0.0 | 0.00 | 0.00 | 0.00 | 96 | 1015.3 |
| 20260508072946 | 57 | 195 | 0.0 | 0.0 | 0.00 | 0.00 | 0.00 | 96 | 1015.5 |
| 20260508072442 | 57 | 196 | 0.0 | 0.0 | 0.00 | 0.00 | 0.00 | 96 | 1015.4 |
| 20260508071939 | 57 | 195 | 0.0 | 0.0 | 0.00 | 0.00 | 0.00 | 96 | 1015.4 |
| 20260508071437 | 57 | 195 | 0.0 | 0.0 | 0.00 | 0.00 | 0.00 | 96 | 1015.3 |
| 20260508070935 | 58 | 195 | 0.0 | 0.0 | 0.00 | 0.00 | 0.00 | 95 | 1015.5 |
| 20260508070432 | 58 | 195 | 0.0 | 0.0 | 0.00 | 0.00 | 0.00 | 93 | 1015.4 |
| 20260508065930 | 58 | 195 | 0.0 | 0.0 | 0.00 | 0.00 | 0.00 | 92 | 1015.4 |
| 20260508065428 | 58 | 195 | 0.0 | 0.0 | 0.00 | 0.00 | 0.00 | 92 | 1015.4 |
| 20260508064926 | 58 | 194 | 0.0 | 0.0 | 0.00 | 0.00 | 0.00 | 92 | 1015.1 |
| 20260508064423 | 59 | 196 | 0.0 | 0.0 | 0.00 | 0.00 | 0.00 | 91 | 1015.2 |
| 20260508063920 | 59 | 196 | 0.0 | 0.0 | 0.00 | 0.00 | 0.00 | 92 | 1015.2 |
| 20260508063418 | 59 | 196 | 0.0 | 0.0 | 0.00 | 0.00 | 0.00 | 91 | 1015.4 |
| 20260508062915 | 59 | 196 | 0.0 | 0.0 | 0.00 | 0.00 | 0.00 | 93 | 1015.1 |
| 20260508062413 | 59 | 196 | 0.0 | 0.0 | 0.00 | 0.00 | 0.00 | 92 | 1015.3 |
| 20260508061909 | 59 | 197 | 0.0 | 0.0 | 0.00 | 0.00 | 0.00 | 94 | 1015.2 |
| 20260508061407 | 59 | 197 | 0.0 | 0.0 | 0.00 | 0.00 | 0.00 | 94 | 1015.3 |
| 20260508060903 | 59 | 197 | 0.0 | 0.0 | 0.00 | 0.00 | 0.00 | 94 | 1015.3 |
| 20260508060401 | 59 | 197 | 0.0 | 0.0 | 0.00 | 0.00 | 0.00 | 94 | 1015.5 |
| 20260508055901 | 59 | 197 | 0.0 | 0.0 | 0.00 | 0.00 | 0.00 | 94 | 1015.3 |
| 20260508055359 | 59 | 197 | 0.0 | 0.0 | 0.00 | 0.00 | 0.00 | 94 | 1015.3 |
| 20260508054855 | 59 | 197 | 0.0 | 0.0 | 0.00 | 0.00 | 0.00 | 93 | 1015.3 |
| 20260508054352 | 60 | 196 | 0.0 | 0.0 | 0.00 | 0.00 | 0.00 | 94 | 1015.3 |
| 20260508053849 | 60 | 197 | 0.0 | 0.0 | 0.00 | 0.00 | 0.00 | 94 | 1015.5 |
| 20260508053347 | 60 | 197 | 0.0 | 0.0 | 0.00 | 0.00 | 0.00 | 93 | 1015.2 |
| 20260508052844 | 60 | 197 | 0.0 | 0.0 | 0.00 | 0.00 | 0.00 | 92 | 1015.2 |
| 20260508052342 | 60 | 197 | 0.0 | 0.0 | 0.00 | 0.00 | 0.00 | 92 | 1015.4 |
| 20260508051837 | 61 | 197 | 0.0 | 0.0 | 0.00 | 0.00 | 0.00 | 90 | 1015.4 |
| 20260508051333 | 61 | 196 | 0.0 | 0.0 | 0.00 | 0.00 | 0.00 | 90 | 1015.2 |
| 20260508050829 | 62 | 196 | 0.0 | 0.0 | 0.00 | 0.00 | 0.00 | 89 | 1015.1 |
| 20260508050327 | 61 | 201 | 0.0 | 0.0 | 0.00 | 0.00 | 0.00 | 90 | 1015.2 |
| 20260508045822 | 61 | 254 | 0.0 | 0.0 | 0.00 | 0.00 | 0.00 | 91 | 1015.2 |
| 20260508045320 | 62 | 219 | 0.0 | 0.0 | 0.00 | 0.00 | 0.00 | 91 | 1015.3 |
| 20260508044818 | 62 | 232 | 0.0 | 0.0 | 0.00 | 0.00 | 0.00 | 92 | 1015.2 |
| 20260508044314 | 62 | 200 | 0.0 | 0.0 | 0.00 | 0.00 | 0.00 | 92 | 1015.2 |
| 20260508043810 | 62 | 201 | 0.0 | 0.0 | 0.00 | 0.00 | 0.00 | 92 | 1015.0 |
| 20260508043308 | 62 | 200 | 0.0 | 0.0 | 0.00 | 0.00 | 0.00 | 91 | 1015.0 |
| 20260508042804 | 63 | 201 | 0.0 | 0.0 | 0.00 | 0.00 | 0.00 | 89 | 1014.9 |
| 20260508042306 | 63 | 201 | 0.0 | 0.0 | 0.00 | 0.00 | 0.00 | 88 | 1014.9 |
| 20260508041758 | 63 | 201 | 0.0 | 0.0 | 0.00 | 0.00 | 0.00 | 87 | 1014.8 |
| 20260508041255 | 64 | 201 | 0.0 | 0.0 | 0.00 | 0.00 | 0.00 | 86 | 1014.6 |
| 20260508040751 | 64 | 200 | 0.0 | 0.0 | 0.00 | 0.00 | 0.00 | 86 | 1014.9 |
| 20260508040248 | 64 | 200 | 0.0 | 0.0 | 0.00 | 0.00 | 0.00 | 85 | 1014.9 |
| 20260508035746 | 64 | 199 | 0.0 | 0.0 | 0.00 | 0.05 | 0.05 | 85 | 1015.0 |
| 20260508035243 | 65 | 217 | 0.0 | 0.0 | 0.00 | 0.05 | 0.05 | 84 | 1014.8 |
| 20260508034739 | 65 | 206 | 0.0 | 0.0 | 0.00 | 0.05 | 0.05 | 84 | 1014.9 |
| 20260508034237 | 65 | 193 | 0.0 | 0.0 | 0.00 | 0.05 | 0.05 | 85 | 1014.8 |
| 20260508033734 | 66 | 225 | 0.0 | 0.0 | 0.00 | 0.05 | 0.05 | 85 | 1014.9 |
| 20260508033232 | 66 | 226 | 0.0 | 0.0 | 0.00 | 0.05 | 0.05 | 83 | 1014.7 |
| 20260508032729 | 66 | 229 | 0.0 | 0.0 | 0.00 | 0.05 | 0.05 | 84 | 1014.6 |
| 20260508032226 | 66 | 222 | 0.0 | 0.0 | 0.00 | 0.05 | 0.05 | 84 | 1014.7 |
| 20260508031723 | 66 | 210 | 0.0 | 0.0 | 0.00 | 0.05 | 0.05 | 87 | 1014.6 |
| 20260508031219 | 67 | 7 | 0.0 | 0.0 | 0.00 | 0.05 | 0.05 | 82 | 1014.6 |
| 20260508030716 | 66 | 141 | 0.0 | 0.0 | 0.00 | 0.05 | 0.05 | 83 | 1014.4 |
| 20260508030214 | 66 | 71 | 0.0 | 0.0 | 0.00 | 0.05 | 0.05 | 87 | 1014.6 |
| 20260508025710 | 67 | 215 | 0.0 | 0.0 | 0.00 | 0.05 | 0.05 | 88 | 1014.4 |
| 20260508025207 | 68 | 202 | 0.0 | 0.0 | 0.00 | 0.05 | 0.05 | 85 | 1014.5 |
| 20260508024703 | 67 | 220 | 0.0 | 0.0 | 0.00 | 0.05 | 0.05 | 88 | 1014.3 |
| 20260508024200 | 67 | 233 | 0.0 | 0.0 | 0.00 | 0.05 | 0.05 | 86 | 1014.2 |
| 20260508023656 | 67 | 144 | 0.0 | 0.0 | 0.00 | 0.05 | 0.05 | 87 | 1014.0 |
| 20260508023154 | 68 | 250 | 0.0 | 0.0 | 0.00 | 0.05 | 0.05 | 87 | 1013.7 |
| 20260508022649 | 68 | 124 | 0.0 | 0.0 | 0.00 | 0.05 | 0.05 | 90 | 1013.9 |
| 20260508022147 | 68 | 231 | 0.0 | 0.0 | 0.00 | 0.05 | 0.05 | 91 | 1013.9 |
| 20260508021643 | 68 | 173 | 0.0 | 0.0 | 0.00 | 0.05 | 0.05 | 90 | 1014.0 |
| 20260508021138 | 68 | 229 | 0.0 | 0.0 | 0.00 | 0.05 | 0.05 | 89 | 1013.9 |
| 20260508020636 | 69 | 206 | 0.0 | 0.0 | 0.00 | 0.05 | 0.05 | 88 | 1013.7 |
| 20260508020134 | 69 | 228 | 0.0 | 0.0 | 0.00 | 0.05 | 0.05 | 91 | 1013.6 |
| 20260508015631 | 69 | 68 | 0.0 | 0.0 | 0.00 | 0.05 | 0.05 | 90 | 1013.7 |
| 20260508015128 | 69 | 226 | 0.0 | 0.0 | 0.00 | 0.05 | 0.05 | 91 | 1013.4 |
| 20260508014624 | 69 | 234 | 0.0 | 0.0 | 0.00 | 0.05 | 0.05 | 92 | 1013.0 |
| 20260508014121 | 69 | 228 | 0.0 | 0.0 | 0.00 | 0.05 | 0.05 | 93 | 1013.2 |
| 20260508013617 | 69 | 198 | 0.0 | 0.0 | 0.00 | 0.05 | 0.05 | 92 | 1013.1 |
| 20260508013114 | 69 | 244 | 0.0 | 0.0 | 0.00 | 0.05 | 0.05 | 94 | 1012.9 |
| 20260508012611 | 69 | 206 | 0.0 | 0.0 | 0.00 | 0.05 | 0.05 | 94 | 1012.8 |
| 20260508012108 | 69 | 206 | 0.0 | 0.0 | 0.00 | 0.05 | 0.05 | 95 | 1012.7 |
| 20260508011607 | 69 | 227 | 0.0 | 0.0 | 0.00 | 0.05 | 0.05 | 95 | 1012.5 |
| 20260508011104 | 69 | 230 | 0.0 | 0.0 | 0.00 | 0.05 | 0.05 | 95 | 1012.4 |
| 20260508010600 | 69 | 226 | 0.0 | 0.0 | 0.00 | 0.05 | 0.05 | 95 | 1012.4 |
| 20260508010058 | 69 | 201 | 0.0 | 0.0 | 0.00 | 0.05 | 0.05 | 97 | 1012.4 |
| 20260508005554 | 69 | 237 | 0.0 | 0.0 | 0.00 | 0.05 | 0.05 | 97 | 1012.3 |
| 20260508005051 | 69 | 218 | 0.0 | 0.0 | 0.00 | 0.05 | 0.05 | 98 | 1012.3 |
| 20260508004547 | 69 | 240 | 0.0 | 0.0 | 0.00 | 0.05 | 0.05 | 98 | 1012.0 |
| 20260508004044 | 70 | 236 | 0.0 | 0.0 | 0.00 | 0.05 | 0.05 | 98 | 1012.1 |
| 20260508003540 | 70 | 209 | 0.0 | 0.0 | 0.00 | 0.05 | 0.05 | 98 | 1011.8 |
| 20260508003038 | 70 | 223 | 0.0 | 0.0 | 0.00 | 0.05 | 0.05 | 98 | 1011.6 |
| 20260508002534 | 70 | 224 | 0.0 | 0.0 | 0.00 | 0.05 | 0.05 | 98 | 1011.6 |
| 20260508002032 | 71 | 222 | 0.0 | 0.0 | 0.00 | 0.05 | 0.05 | 97 | 1011.6 |
| 20260508001527 | 71 | 232 | 0.0 | 0.0 | 0.00 | 0.05 | 0.05 | 97 | 1011.5 |
| 20260508001023 | 71 | 183 | 0.0 | 0.0 | 0.00 | 0.05 | 0.05 | 96 | 1011.6 |
| 20260508000519 | 71 | 227 | 0.0 | 0.0 | 0.00 | 0.05 | 0.05 | 96 | 1011.4 |
| 20260508000017 | 72 | 230 | 0.0 | 0.0 | 0.00 | 0.05 | 0.05 | 96 | 1011.4 |
| 20260507235513 | 72 | 202 | 0.0 | 0.0 | 0.00 | 0.05 | 0.05 | 95 | 1011.4 |
| 20260507235011 | 72 | 208 | 0.0 | 0.0 | 0.00 | 0.05 | 0.05 | 93 | 1011.4 |
| 20260507234507 | 72 | 242 | 0.0 | 0.0 | 0.00 | 0.05 | 0.05 | 94 | 1011.2 |
| 20260507234004 | 73 | 225 | 0.0 | 0.0 | 0.00 | 0.05 | 0.05 | 93 | 1011.3 |
| 20260507233500 | 73 | 201 | 0.0 | 0.0 | 0.00 | 0.05 | 0.05 | 92 | 1011.1 |
| 20260507232959 | 73 | 208 | 0.0 | 0.0 | 0.00 | 0.05 | 0.05 | 93 | 1010.8 |
| 20260507232455 | 73 | 233 | 0.0 | 0.0 | 0.00 | 0.05 | 0.05 | 92 | 1011.1 |
| 20260507231953 | 73 | 238 | 0.0 | 0.0 | 0.00 | 0.05 | 0.05 | 93 | 1010.9 |
| 20260507231448 | 74 | 206 | 0.0 | 0.0 | 0.00 | 0.05 | 0.05 | 91 | 1011.0 |
| 20260507230946 | 74 | 239 | 0.0 | 0.0 | 0.00 | 0.05 | 0.05 | 91 | 1010.9 |
| 20260507230443 | 74 | 224 | 0.0 | 0.0 | 0.00 | 0.05 | 0.05 | 91 | 1011.0 |
| 20260507225938 | 75 | 232 | 0.0 | 0.0 | 0.00 | 0.05 | 0.05 | 90 | 1011.0 |
| 20260507225429 | 75 | 236 | 0.0 | 0.0 | 0.00 | 0.05 | 0.05 | 90 | 1010.7 |
| 20260507224925 | 75 | 277 | 0.0 | 0.0 | 0.00 | 0.05 | 0.05 | 90 | 1010.9 |
| 20260507224421 | 75 | 168 | 0.0 | 0.0 | 0.00 | 0.05 | 0.05 | 87 | 1011.0 |
| 20260507223918 | 75 | 229 | 0.0 | 0.0 | 0.00 | 0.05 | 0.05 | 88 | 1011.0 |
| 20260507223414 | 75 | 225 | 0.0 | 0.0 | 0.00 | 0.05 | 0.05 | 89 | 1011.0 |
| 20260507222911 | 75 | 239 | 0.0 | 0.0 | 0.00 | 0.05 | 0.05 | 87 | 1011.0 |
| 20260507222408 | 76 | 236 | 0.0 | 0.0 | 0.00 | 0.05 | 0.05 | 89 | 1011.1 |
| 20260507221905 | 76 | 175 | 0.0 | 0.0 | 0.00 | 0.05 | 0.05 | 89 | 1010.7 |
| 20260507221401 | 76 | 242 | 0.0 | 0.0 | 0.00 | 0.05 | 0.05 | 88 | 1010.7 |
| 20260507220857 | 76 | 241 | 0.0 | 0.0 | 0.00 | 0.05 | 0.05 | 87 | 1010.7 |
| 20260507220355 | 76 | 231 | 0.0 | 0.0 | 0.00 | 0.05 | 0.05 | 90 | 1010.7 |
| 20260507215851 | 77 | 229 | 0.0 | 0.0 | 0.00 | 0.05 | 0.05 | 91 | 1010.6 |
| 20260507215348 | 77 | 213 | 0.0 | 0.0 | 0.00 | 0.05 | 0.05 | 88 | 1010.6 |
| 20260507214845 | 78 | 259 | 0.0 | 0.0 | 0.00 | 0.05 | 0.05 | 87 | 1011.0 |
| 20260507214343 | 79 | 259 | 0.0 | 0.0 | 0.00 | 0.05 | 0.05 | 84 | 1010.7 |
| 20260507213838 | 78 | 239 | 0.0 | 0.0 | 0.00 | 0.05 | 0.05 | 86 | 1010.9 |
| 20260507213335 | 78 | 235 | 0.0 | 0.0 | 0.00 | 0.05 | 0.05 | 86 | 1010.6 |
| 20260507212831 | 78 | 225 | 0.0 | 0.0 | 0.00 | 0.05 | 0.05 | 85 | 1010.9 |
| 20260507212327 | 77 | 253 | 0.0 | 0.0 | 0.00 | 0.05 | 0.05 | 90 | 1010.9 |
| 20260507211824 | 77 | 63 | 0.0 | 0.0 | 0.00 | 0.05 | 0.05 | 91 | 1010.9 |
| 20260507211321 | 75 | 230 | 0.0 | 0.0 | 0.00 | 0.05 | 0.05 | 93 | 1010.8 |
| 20260507210818 | 75 | 221 | 0.0 | 0.0 | 0.00 | 0.05 | 0.05 | 94 | 1011.0 |
| 20260507210315 | 75 | 220 | 0.0 | 0.0 | 0.00 | 0.05 | 0.05 | 96 | 1011.0 |
| 20260507205811 | 74 | 219 | 0.0 | 0.0 | 0.00 | 0.05 | 0.05 | 98 | 1011.0 |
| 20260507205308 | 74 | 217 | 0.0 | 0.0 | 0.00 | 0.05 | 0.05 | 97 | 1011.0 |
| 20260507204804 | 74 | 219 | 0.0 | 0.0 | 0.00 | 0.05 | 0.05 | 97 | 1011.0 |
| 20260507204302 | 74 | 220 | 0.0 | 0.0 | 0.00 | 0.05 | 0.05 | 97 | 1011.1 |
| 20260507203800 | 74 | 208 | 0.0 | 0.0 | 0.00 | 0.05 | 0.05 | 97 | 1011.0 |
| 20260507203258 | 74 | 208 | 0.0 | 0.0 | 0.00 | 0.05 | 0.05 | 97 | 1011.0 |
| 20260507202753 | 73 | 208 | 0.0 | 0.0 | 0.00 | 0.05 | 0.05 | 97 | 1011.1 |
| 20260507202249 | 73 | 208 | 0.0 | 0.0 | 0.00 | 0.05 | 0.05 | 97 | 1011.1 |
| 20260507201744 | 73 | 208 | 0.0 | 0.0 | 0.00 | 0.05 | 0.05 | 97 | 1011.1 |
| 20260507201241 | 74 | 194 | 0.0 | 0.0 | 0.00 | 0.05 | 0.05 | 98 | 1011.1 |
| 20260507200737 | 74 | 202 | 0.0 | 0.0 | 0.00 | 0.05 | 0.05 | 97 | 1011.0 |
| 20260507200233 | 75 | 190 | 0.0 | 0.0 | 0.00 | 0.05 | 0.05 | 96 | 1011.3 |
| 20260507195730 | 75 | 212 | 0.0 | 0.0 | 0.00 | 0.05 | 0.05 | 96 | 1011.2 |
| 20260507195227 | 75 | 208 | 0.0 | 0.0 | 0.00 | 0.05 | 0.05 | 95 | 1011.2 |
| 20260507194724 | 75 | 234 | 0.0 | 0.0 | 0.00 | 0.05 | 0.05 | 94 | 1011.1 |
| 20260507194220 | 75 | 167 | 0.0 | 0.0 | 0.00 | 0.05 | 0.05 | 96 | 1011.2 |
| 20260507193717 | 75 | 177 | 0.0 | 0.0 | 0.00 | 0.05 | 0.05 | 96 | 1011.1 |
| 20260507193214 | 75 | 226 | 0.0 | 0.0 | 0.00 | 0.05 | 0.05 | 97 | 1011.0 |
| 20260507192710 | 75 | 282 | 0.0 | 0.0 | 0.00 | 0.05 | 0.05 | 97 | 1011.1 |
| 20260507192207 | 75 | 234 | 0.0 | 0.0 | 0.00 | 0.05 | 0.05 | 97 | 1011.2 |
| 20260507191703 | 75 | 202 | 0.0 | 0.0 | 0.00 | 0.05 | 0.05 | 98 | 1011.3 |
| 20260507191200 | 75 | 352 | 0.0 | 0.0 | 0.00 | 0.05 | 0.05 | 99 | 1011.2 |
| 20260507190651 | 74 | 305 | 0.0 | 0.0 | 0.00 | 0.05 | 0.05 | 99 | 1011.1 |
| 20260507190149 | 73 | 251 | 0.0 | 0.0 | 0.00 | 0.05 | 0.05 | 99 | 1011.1 |
| 20260507185647 | 73 | 88 | 0.0 | 0.0 | 0.00 | 0.05 | 0.05 | 99 | 1011.2 |
| 20260507185144 | 74 | 232 | 0.0 | 0.0 | 0.00 | 0.05 | 0.05 | 99 | 1011.3 |
| 20260507184642 | 73 | 200 | 0.0 | 0.0 | 0.00 | 0.05 | 0.05 | 99 | 1011.2 |
| 20260507184140 | 73 | 215 | 0.0 | 0.0 | 0.00 | 0.05 | 0.05 | 99 | 1011.2 |
| 20260507183636 | 72 | 96 | 0.0 | 0.0 | 0.00 | 0.05 | 0.05 | 99 | 1011.1 |
| 20260507183133 | 71 | 234 | 0.0 | 0.0 | 0.00 | 0.05 | 0.05 | 99 | 1011.4 |
| 20260507182629 | 71 | 261 | 0.0 | 0.0 | 0.00 | 0.05 | 0.05 | 99 | 1011.4 |
| 20260507182126 | 72 | 238 | 0.0 | 0.0 | 0.00 | 0.05 | 0.05 | 99 | 1011.5 |
| 20260507181622 | 72 | 278 | 0.0 | 0.0 | 0.00 | 0.05 | 0.05 | 99 | 1011.3 |
| 20260507181118 | 71 | 278 | 0.0 | 0.0 | 0.00 | 0.05 | 0.05 | 99 | 1011.6 |
| 20260507180615 | 70 | 228 | 0.0 | 0.0 | 0.00 | 0.05 | 0.05 | 99 | 1011.4 |
| 20260507180112 | 70 | 231 | 0.0 | 0.0 | 0.00 | 0.05 | 0.05 | 99 | 1011.3 |
| 20260507175608 | 70 | 201 | 0.0 | 0.0 | 0.00 | 0.05 | 0.05 | 99 | 1011.2 |
| 20260507175106 | 70 | 208 | 0.0 | 0.0 | 0.00 | 0.05 | 0.05 | 99 | 1010.9 |
| 20260507174602 | 69 | 214 | 0.0 | 0.0 | 0.00 | 0.05 | 0.05 | 99 | 1011.3 |
| 20260507174100 | 68 | 213 | 0.0 | 0.0 | 0.00 | 0.05 | 0.05 | 99 | 1011.2 |
| 20260507173557 | 68 | 207 | 0.0 | 0.0 | 0.00 | 0.05 | 0.05 | 99 | 1011.0 |
| 20260507173054 | 68 | 206 | 0.0 | 0.0 | 0.00 | 0.05 | 0.05 | 99 | 1011.8 |
| 20260507172550 | 68 | 207 | 0.0 | 0.0 | 0.00 | 0.05 | 0.05 | 99 | 1012.0 |
| 20260507172047 | 68 | 206 | 0.0 | 0.0 | 0.00 | 0.05 | 0.05 | 99 | 1011.8 |
| 20260507171542 | 68 | 207 | 0.0 | 0.0 | 0.00 | 0.05 | 0.05 | 99 | 1012.0 |
| 20260507171040 | 68 | 207 | 0.0 | 0.0 | 0.00 | 0.05 | 0.05 | 99 | 1011.7 |
| 20260507170536 | 68 | 197 | 0.0 | 0.0 | 0.00 | 0.05 | 0.05 | 99 | 1011.9 |
| 20260507170034 | 68 | 194 | 0.0 | 0.0 | 0.00 | 0.05 | 0.05 | 99 | 1011.4 |
| 20260507165529 | 68 | 198 | 0.0 | 0.0 | 0.00 | 0.05 | 0.05 | 99 | 1012.0 |
| 20260507165026 | 68 | 242 | 0.0 | 0.0 | 0.00 | 0.05 | 0.05 | 99 | 1012.1 |
| 20260507164522 | 68 | 212 | 0.0 | 0.0 | 0.00 | 0.05 | 0.05 | 99 | 1011.9 |
| 20260507164019 | 69 | 219 | 0.0 | 0.0 | 0.00 | 0.05 | 0.05 | 99 | 1012.2 |
| 20260507163516 | 69 | 256 | 0.0 | 0.0 | 0.00 | 0.05 | 0.05 | 99 | 1012.4 |
| 20260507163015 | 69 | 334 | 0.0 | 0.0 | 0.00 | 0.05 | 0.05 | 99 | 1012.4 |
| 20260507162509 | 69 | 217 | 0.0 | 0.0 | 0.00 | 0.05 | 0.05 | 99 | 1012.5 |
| 20260507162006 | 69 | 182 | 0.0 | 0.0 | 0.00 | 0.05 | 0.05 | 99 | 1012.3 |
| 20260507161502 | 69 | 241 | 0.0 | 0.0 | 0.00 | 0.05 | 0.05 | 99 | 1012.3 |
| 20260507160959 | 69 | 225 | 0.0 | 0.0 | 0.00 | 0.05 | 0.05 | 99 | 1012.5 |
| 20260507160455 | 69 | 217 | 0.0 | 0.0 | 0.00 | 0.05 | 0.05 | 99 | 1012.5 |
| 20260507155951 | 69 | 143 | 0.0 | 0.0 | 0.00 | 0.05 | 0.05 | 99 | 1012.4 |
| 20260507155447 | 69 | 213 | 0.0 | 0.0 | 0.00 | 0.05 | 0.05 | 99 | 1012.2 |
| 20260507154944 | 69 | 217 | 0.0 | 0.0 | 0.00 | 0.05 | 0.05 | 99 | 1012.2 |
| 20260507154441 | 69 | 245 | 0.0 | 0.0 | 0.00 | 0.05 | 0.05 | 99 | 1012.2 |
| 20260507153938 | 69 | 229 | 0.0 | 0.0 | 0.00 | 0.05 | 0.05 | 99 | 1012.4 |
| 20260507153435 | 69 | 224 | 0.0 | 0.0 | 0.00 | 0.05 | 0.05 | 99 | 1012.2 |
| 20260507152931 | 69 | 240 | 0.0 | 0.0 | 0.00 | 0.05 | 0.05 | 99 | 1011.8 |
| 20260507152427 | 69 | 222 | 0.0 | 0.0 | 0.00 | 0.05 | 0.05 | 99 | 1011.5 |
| 20260507151923 | 69 | 195 | 0.0 | 0.0 | 0.00 | 0.05 | 0.05 | 99 | 1011.2 |
| 20260507151420 | 68 | 201 | 0.0 | 0.0 | 0.00 | 0.05 | 0.05 | 99 | 1011.3 |
| 20260507150917 | 68 | 190 | 0.0 | 0.0 | 0.00 | 0.05 | 0.05 | 99 | 1011.4 |
| 20260507150414 | 68 | 184 | 0.0 | 0.0 | 0.00 | 0.05 | 0.05 | 99 | 1011.6 |
| 20260507145910 | 68 | 166 | 0.0 | 0.0 | 0.00 | 0.05 | 0.05 | 99 | 1011.7 |
| 20260507145406 | 68 | 355 | 0.0 | 0.0 | 0.00 | 0.05 | 0.05 | 99 | 1011.6 |
| 20260507144903 | 68 | 234 | 0.0 | 0.0 | 0.00 | 0.05 | 0.05 | 99 | 1011.4 |
| 20260507144400 | 68 | 229 | 0.0 | 0.0 | 0.00 | 0.05 | 0.05 | 99 | 1011.9 |
| 20260507143857 | 68 | 197 | 0.0 | 0.0 | 0.00 | 0.05 | 0.05 | 99 | 1011.2 |
| 20260507143354 | 68 | 211 | 0.0 | 0.0 | 0.00 | 0.05 | 0.05 | 99 | 1011.4 |
| 20260507142851 | 68 | 210 | 0.0 | 0.0 | 0.00 | 0.05 | 0.05 | 99 | 1011.1 |
| 20260507142347 | 68 | 200 | 0.0 | 0.0 | 0.00 | 0.05 | 0.05 | 99 | 1011.8 |
| 20260507141844 | 68 | 217 | 0.0 | 0.0 | 0.00 | 0.05 | 0.05 | 99 | 1012.0 |
| 20260507141340 | 68 | 215 | 0.0 | 0.0 | 0.00 | 0.05 | 0.05 | 99 | 1011.8 |
| 20260507140837 | 68 | 154 | 0.0 | 0.0 | 0.00 | 0.05 | 0.05 | 99 | 1012.0 |
| 20260507140334 | 68 | 184 | 0.0 | 0.0 | 0.00 | 0.05 | 0.05 | 99 | 1012.4 |
| 20260507135832 | 68 | 205 | 0.0 | 0.0 | 0.00 | 0.05 | 0.05 | 99 | 1012.4 |
| 20260507135328 | 68 | 182 | 0.0 | 0.0 | 0.00 | 0.05 | 0.05 | 99 | 1012.3 |
| 20260507134825 | 68 | 182 | 0.0 | 0.0 | 0.00 | 0.05 | 0.05 | 99 | 1011.8 |
| 20260507134321 | 68 | 219 | 0.0 | 0.0 | 0.00 | 0.05 | 0.05 | 99 | 1011.9 |
| 20260507133817 | 68 | 213 | 0.0 | 0.0 | 0.00 | 0.05 | 0.05 | 99 | 1012.6 |
| 20260507133313 | 68 | 205 | 0.0 | 0.0 | 0.00 | 0.05 | 0.05 | 99 | 1012.7 |
| 20260507132812 | 68 | 252 | 0.0 | 0.0 | 0.00 | 0.05 | 0.05 | 99 | 1012.7 |
| 20260507132308 | 68 | 225 | 0.0 | 0.0 | 0.00 | 0.05 | 0.05 | 99 | 1011.9 |
| 20260507131805 | 68 | 221 | 0.0 | 0.0 | 0.00 | 0.05 | 0.05 | 99 | 1012.3 |
| 20260507131302 | 68 | 234 | 0.0 | 0.0 | 0.00 | 0.05 | 0.05 | 99 | 1012.0 |
| 20260507130758 | 68 | 237 | 0.0 | 0.0 | 0.00 | 0.05 | 0.05 | 99 | 1012.1 |
| 20260507130256 | 68 | 206 | 0.0 | 0.0 | 0.00 | 0.05 | 0.05 | 99 | 1012.0 |
| 20260507125755 | 68 | 229 | 0.0 | 0.0 | 0.00 | 0.05 | 0.05 | 99 | 1012.2 |
| 20260507125252 | 68 | 211 | 0.0 | 0.0 | 0.00 | 0.05 | 0.05 | 99 | 1012.0 |
| 20260507124749 | 67 | 214 | 0.0 | 0.0 | 0.00 | 0.05 | 0.05 | 99 | 1011.8 |
| 20260507124245 | 67 | 215 | 0.0 | 0.0 | 0.00 | 0.05 | 0.05 | 99 | 1012.1 |
| 20260507123744 | 67 | 216 | 0.0 | 0.0 | 0.00 | 0.05 | 0.05 | 99 | 1012.1 |
| 20260507123241 | 67 | 211 | 0.0 | 0.0 | 0.00 | 0.05 | 0.05 | 99 | 1011.7 |
| 20260507122736 | 67 | 223 | 0.0 | 0.0 | 0.00 | 0.05 | 0.05 | 99 | 1011.7 |
| 20260507122232 | 67 | 174 | 0.0 | 0.0 | 0.00 | 0.05 | 0.05 | 99 | 1011.6 |